ONEWEB-0322 (49192 NORAD) Tracking and Keplerian Element Data

This shows tracking and keplerian element data for the satellite.

Feedback or suggestion? Click here.




ElementValue
Catalog49192
NameONEWEB-0322
Epoch Orbit779
Epoch Day300.83334491
Epoch Year2021
RAAN312.9856
Inclination87.1972
Eccentricity0.0020678
Argument of Perigee146.5525
Mean Anonmoly267.5036
Mean Motion14.87030588
Decay Rate0.0002768
L11 49192U 21083G 21300.83334491 .00027680 00000-0 30664-2 0 9994
L22 49192 87.1972 312.9856 0020678 146.5525 267.5036 14.87030588 7792

Live tracking and technical data element details for ONEWEB-0322 (NORAD 49192). ONEWEB-0322 can be tracked NOW for your location showing map with azimuth and elevation plus other details from your city location.

Track the satellite on the map from your city or location and see movement details for azimuth, elevation, latitude, longitude, range, height, and movement on the map or in text.







IsCatalogInMostPopularTable: catalog: 49192, numindb: 10
Update: records affected: 1



GetName: 49192 ONEWEB-0322

Hit Count: updated at: Thu, 28 Oct 2021 12:03:56 GMT